Location: Saint-Bauzile
(44.6762°N, 4.6739°E)
Time: 01:36:37
(UTC+00:00)

Daily predictions for brighter satellites

Satellite Brightness Start Highest point End
(mag) Time Altitude Azimuth Time Altitude Azimuth Time Altitude Azimuth
ATLAS 2AS CENTAUR R/B 4.3 02:52:21 31° NE 02:52:21 31° NE 02:56:01 10° NE
Lacrosse 5 4.4 03:33:29 14° NE 03:33:29 14° NE 03:34:13 10° NE
ATLAS 3B R/B 3.6 03:36:30 41° SSE 03:36:30 41° SSE 03:40:57 10° SSE
CZ-4C R/B 3.9 03:47:08 25° NNE 03:47:08 25° NNE 03:49:43 10° NNE
BREEZE-M DEB (TANK) 4.5 03:53:02 66° WNW 03:54:26 76° N 04:28:17 10° E
Atlas Centaur 2 4.3 04:00:45 22° S 04:00:45 22° S 04:05:00 10° SSE
Cosmos 1844 Rocket 4.0 04:02:42 31° NNE 04:02:42 31° NNE 04:05:35 10° NNE
USA 305 4.3 04:16:56 36° ENE 04:16:56 36° ENE 04:19:59 10° E
ATLAS 5 CENTAUR R/B 2.7 04:17:17 40° E 04:17:17 40° E 04:20:45 10° NE
Nadezhda 3 Rocket 4.5 04:16:37 10° N 04:22:48 59° ENE 04:28:54 10° SSE
USA 306 3.9 04:25:27 44° ENE 04:25:27 44° ENE 04:28:55 10° ESE
BREEZE-M DEB (TANK) 3.9 04:34:15 36° ENE 04:34:15 36° ENE 04:36:42 10° ENE
ADEOS 3.4 04:29:06 10° NNE 04:34:22 90° ESE 04:39:35 10° SSW
FENGYUN 3A 3.5 04:29:26 10° N 04:34:51 77° WNW 04:40:13 10° SSW
Meteor 1-27 Rocket 4.4 04:29:49 10° N 04:35:35 56° ENE 04:41:22 10° SSE
Cosmos 1844 4.2 04:37:52 42° NNW 04:37:52 42° NNW 04:41:58 10° NNE
ATLAS 2AS CENTAUR R/B 3.8 04:39:47 32° NW 04:40:03 32° NNW 04:46:52 10° NNE
Meteor 1-10 Rocket 4.1 04:41:22 33° NNW 04:44:01 81° W 04:49:42 10° S
Cosmos 1610 Rocket 4.5 04:39:34 10° S 04:45:58 89° E 04:52:22 10° N
SKYMED 2 3.7 04:42:46 10° SSE 04:47:05 74° ENE 04:48:45 37° N
METEOR-M 4.0 04:44:22 10° N 04:49:42 72° WNW 04:55:01 10° SSW
Cosmos 372 Rocket 3.8 04:49:27 51° SW 04:50:33 67° WNW 04:55:40 10° NNE
COSMOS 2455 2.8 04:49:17 46° WSW 04:50:54 61° NW 04:56:54 10° NNE
CZ-2C R/B 3.2 04:50:56 15° S 04:50:56 15° S 04:52:57 10° SE
Cosmos 2150 Rocket 4.3 04:45:53 10° S 04:51:08 69° ESE 04:56:20 10° NNE
Cosmos 1707 Rocket 4.5 04:47:28 12° N 04:51:22 47° ENE 04:55:32 10° SSE
SJ-12 3.9 04:47:20 10° NNE 04:51:24 79° E 04:55:28 10° S
Cosmos 2154 Rocket 3.9 04:48:01 10° S 04:54:16 81° W 05:00:36 10° N
Cosmos 2298 Rocket 4.1 04:49:22 10° SSW 04:54:38 80° ESE 04:59:58 10° NNE
PSLV R/B 4.2 04:53:14 10° SSE 04:57:18 65° ENE 04:59:50 22° N
Sich 1 3.1 04:55:22 10° S 04:59:47 78° E 05:04:14 10° NNE
ALOS 4.0 04:55:35 10° N 04:56:56 18° N 04:56:56 18° N
Cosmos 1295 Rocket 4.3 04:54:52 10° S 05:00:57 87° W 05:07:06 10° N
ERS-2 3.7 04:57:33 10° S 04:59:08 23° SSW 04:59:08 23° SSW
Cosmos 1833 Rocket 2.9 04:57:52 19° NNW 05:01:54 68° ENE 05:07:28 10° SE
Cosmos 2327 Rocket 4.3 04:57:08 10° SSW 05:03:10 67° W 05:09:15 10° N
Cosmos 2074 Rocket 4.2 05:00:00 10° SW 05:05:50 43° WNW 05:11:45 10° N
Cosmos 2082 Rocket 3.2 05:01:52 11° NNW 05:07:08 44° ENE 05:12:34 10° SE
SL-4 R/B 1.7 05:06:43 62° NW 05:07:18 80° NNE 05:10:59 10° ESE
EXPRESS MD2 3.5 05:07:42 52° WNW 05:08:38 78° SSW 05:15:19 10° ESE
USA 290 4.3 05:07:38 15° N 05:09:40 26° ENE 05:12:27 10° ESE
Cosmos 2228 Rocket 3.6 05:11:09 37° WSW 05:11:09 37° WSW 05:14:36 10° SSW
Cosmos 1437 Rocket 3.1 05:12:48 43° WSW 05:12:48 43° WSW 05:15:54 10° S
Lacrosse 5 3.4 05:12:41 19° NNW 05:13:39 20° N 05:17:26 10° NE
EO 1 Delta rocket 3.7 05:12:14 10° S 05:16:57 79° W 05:21:39 10° NNW
Cosmos 2341 Rocket 4.0 05:14:44 10° S 05:20:57 88° E 05:27:14 10° N
ATLAS 3B R/B 4.1 05:23:49 17° WSW 05:23:49 17° WSW 05:27:56 10° SW
Meteor 2-12 Rocket 4.4 05:17:31 10° SSW 05:23:41 80° W 05:29:53 10° N
USA 307 2.9 05:22:34 36° WNW 05:24:16 73° SW 05:28:33 10° SE
Meteor PRIRODA 3.6 05:23:15 10° N 05:26:56 57° WNW 05:30:35 10° SSW
CZ-4B R/B 3.1 05:24:45 10° N 05:29:04 54° WNW 05:33:12 10° SSW
USA 308 2.9 05:28:59 31° WNW 05:30:55 66° SW 05:35:10 10° SE
CZ-4C R/B 3.7 05:32:20 17° NW 05:33:48 19° NNW 05:38:12 10° NNE
Cosmos 2278 Rocket 2.1 05:28:24 10° SSW 05:34:02 73° WNW 05:39:44 10° NNE
SAR-Lupe-4 4.3 05:31:09 10° SSW 05:34:20 30° W 05:34:40 30° W
NOSS 2-1 (D) 4.3 05:31:18 10° SSW 05:34:28 39° ESE 05:37:40 10° NE
COSMO-SKYMED 1 3.2 05:31:17 10° SSW 05:35:14 34° W 05:37:21 22° NW
Okean O Rocket 3.5 05:34:35 10° NNE 05:38:40 34° E 05:42:44 10° SSE
Cosmos 1862 Rocket 3.7 05:34:19 10° N 05:38:46 78° E 05:43:09 10° SSE
Envisat 3.2 05:34:32 10° NNE 05:39:38 75° ESE 05:44:42 10° S
Cosmos 1805 Rocket 4.3 05:35:57 10° SW 05:39:54 31° WNW 05:43:53 10° N
deb Chang Zheng 4 4.4 05:38:15 10° N 05:41:55 27° WNW 05:45:34 10° WSW
NOAA 6 4.3 05:37:58 10° NNE 05:43:06 72° ESE 05:48:12 10° S
Cosmos 494 Rocket 4.0 05:39:47 11° NNW 05:44:41 62° WSW 05:49:43 10° S
Cosmos 1844 Rocket 4.2 05:44:25 16° NW 05:44:43 16° NW 05:48:12 10° N
YAOGAN 6 2.5 05:41:21 10° NNE 05:44:52 85° ESE 05:48:21 10° S
Cosmos 1515 4.5 05:42:04 10° N 05:45:48 52° ENE 05:49:30 10° SSE
Cosmos 1666 Rocket 3.6 05:43:49 10° SSW 05:48:01 50° WNW 05:52:17 10° N
SMAP 4.0 05:43:35 10° NNE 05:48:08 52° E 05:52:40 10° S
COSMOS 2406 3.6 05:44:31 14° NW 05:49:07 44° WSW 05:54:33 10° S
FALCON 9 DEB 4.3 05:49:54 20° W 05:51:30 30° SW 05:54:34 10° SSE
Cosmos 1689 Rocket 3.5 05:49:48 10° SW 05:51:47 19° W 05:51:47 19° W
BREEZE-M (TANK) 3.0 05:44:35 10° SW 05:52:20 68° SSE 05:54:59 10° ENE
USA 305 3.6 05:53:05 18° WNW 05:55:51 41° SW 05:59:53 10° SSE
Cosmos 1242 Rocket 2.7 05:56:14 10° NNW 05:59:50 55° W 06:03:25 10° S
H-2A R/B 2.2 05:56:47 10° NNE 06:00:38 81° WNW 06:04:28 10° SSW
Cosmos 1271 Rocket 4.2 05:57:22 10° N 06:01:01 39° ENE 06:04:40 10° SE
ATLAS 5 CENTAUR R/B 2.6 05:58:53 15° W 06:01:24 25° NW 06:05:16 10° NNE
MOS 1 Rocket 3.8 05:58:56 10° S 06:03:43 46° W 06:08:48 10° NNW
USA 306 3.8 06:01:36 15° WNW 06:04:39 35° SW 06:08:34 10° SSE
CZ-2C R/B 2.9 05:59:55 10° SSE 06:05:19 74° ENE 06:10:37 10° N
BREEZE-M R/B 4.5 05:54:24 10° SW 06:05:19 76° SSE 06:10:10 10° ENE
Cosmos 2366 rocket 4.0 06:00:46 10° SSW 06:07:01 68° W 06:13:17 10° N
Cosmos 1633 Rocket 3.5 06:03:54 10° SW 06:08:01 38° WNW 06:12:10 10° N
USA 229 DEB 4.2 06:02:11 10° NW 06:09:29 68° NE 06:17:09 10° SE
USA 229 4.2 06:02:18 10° NW 06:09:34 68° NE 06:17:14 10° SE
USA 81 4.4 06:04:59 10° SSW 06:09:55 41° W 06:14:54 10° N
NOAA 12 4.3 06:05:56 10° NNE 06:11:13 80° ESE 06:16:27 10° S
Okean 1-7 3.8 06:07:08 10° N 06:11:21 54° ENE 06:15:30 10° SSE
Cosmos 2218 Rocket 4.0 06:06:39 10° SSW 06:12:47 59° WNW 06:18:53 10° N
FALCON 9 DEB 4.5 06:10:17 11° NW 06:12:53 26° NNE 06:15:41 10° ENE
Cosmos 1125 Rocket 4.1 06:09:01 10° SW 06:13:44 34° WNW 06:18:29 10° N
H-2A R/B 3.7 06:11:22 10° NNW 06:14:38 26° WNW 06:17:52 10° SW
Meteor 1-20 Rocket 4.4 06:09:36 10° SSW 06:15:10 51° WNW 06:20:51 10° N
CORIOLIS 4.5 06:10:42 10° NNE 06:16:10 75° ESE 06:21:34 10° S
GENESIS II 4.3 06:12:24 10° SW 06:16:23 59° NW 06:20:23 10° NNE
NOSS 3-1 (C) 4.2 06:10:54 10° NW 06:18:30 90° WSW 06:27:15 10° SE
FALCON 9 DEB 4.4 06:15:52 10° NW 06:18:39 27° NNE 06:21:28 10° E
Cosmos 1269 Rocket 4.1 06:15:33 10° NNW 06:20:46 61° WSW 06:25:57 10° S
Iridium 2 3.9 06:19:05 10° N 06:22:51 72° E 06:26:35 10° S
NOSS 3-1 (A) 4.4 06:16:16 10° NW 06:23:45 70° NE 06:32:26 10° SE
NOSS 2-1 (E) 2.9 06:25:11 10° SW 06:28:28 56° NW 06:31:58 10° NNE
CZ-2C R/B 3.3 06:28:08 10° SW 06:29:48 13° S 06:31:26 10° SSE
AQUARIUS 4.2 06:29:12 10° N 06:33:39 62° WNW 06:38:04 10° SSW
ATLAS 2AS CENTAUR R/B 4.4 06:28:31 10° NW 06:33:40 18° N 06:38:41 10° NE
Cosmos 2242 Rocket 3.7 06:31:50 10° NNW 06:36:11 60° W 06:40:29 10° S
